Content
SEND FEEDBACK

Daily
Averages
Monthly
Summary
Saudi Arabia

TABUK, SAUDI ARABIA


Home > Middle East > Saudi Arabia
Elevation: 2526 feet     Latitude: 28 22N     Longitude: 036 38E

WEATHER
 
SELECT A DAY
Number of Records: 178,768;   Date Range: 7/1/96 - 8/12/14
 
SHARE

PRINT THIS DATA

[ ← Previous Day ]
WEATHER ALMANAC - JANUARY 31, 2013
[ Next Day → ]
[ °C ]   °F
Weather ElementAverageHighLow
Temperature50.2 °F59 °F (2:00 pm)42.8 °F (5:00 am)
Dewpoint38.8 °F41 °F (9:00 am)35.6 °F (1:00 pm)
Humidity64.8 %87 % (5:00 am)29 % (3:00 pm)
Barometer29.83 in29.95 in (11:00 pm)29.75 in (3:00 pm)
Wind Speed11.8 mph32.2 mph (4:00 pm)
Weather ElementAverage
Visibility5.5 mi
Wind DirectionS (177.7 °)

Weather ElementTotal
Precipitation---
Heating Degree Days14.1 (Base 65)
Growing Degree Days0.9 (Base 50)
Averaged from 31 records on January 31, 2013
WEATHER CONDITIONS BREAKOUT
WIND DIRECTION BREAKOUT
WEATHER BY HOUR - JANUARY 31, 2013
[ °C ]   °F
Local TimeTemperatureDewpointHumidityBarometerVisibilityWind DirectionWind SpeedGust SpeedPrecipitationEventsConditions
12:00 AM50.0 °F39.2 °F66 %29.83 in6.2 miWSW (240°)4.6 mphPartly Cloudy
1:00 AM48.2 °F39.2 °F71 %29.83 in6.2 miWSW (240°)6.9 mphPartly Cloudy
2:00 AM46.4 °F39.2 °F76 %29.83 in6.2 miWest (260°)3.5 mphPartly Cloudy
3:00 AM46.0 °F39.0 °F69 %29.81 in6.0 miNorth (10°)3.5 mphScattered Clouds
3:00 AM46.4 °F39.2 °F76 %29.83 in6.2 miNorth (10°)3.5 mphPartly Cloudy
4:00 AM44.6 °F39.2 °F81 %29.83 in6.2 miCalmScattered Clouds
5:00 AM42.8 °F39.2 °F87 %29.80 in6.2 miCalmScattered Clouds
6:00 AM42.8 °F39.2 °F87 %29.80 in6.2 miCalmScattered Clouds
6:00 AM43.0 °F39.0 °F81 %29.81 in6.0 miCalmPartly Cloudy
7:00 AM44.6 °F39.2 °F81 %29.83 in6.2 miSSE (150°)2.3 mphRainRain
8:00 AM44.6 °F39.2 °F81 %29.83 in6.2 miSSE (160°)6.9 mphMostly Cloudy
9:00 AM47.0 °F41.0 °F73 %29.84 in6.0 miSouth (180°)5.8 mphMostly Cloudy
9:00 AM50.0 °F39.2 °F66 %29.83 in6.2 miSouth (190°)5.8 mphMostly Cloudy
11:00 AM55.4 °F37.4 °F51 %29.83 in6.2 miSSW (210°)16.1 mphScattered Clouds
12:00 PM57.2 °F37.4 °F48 %29.80 in6.2 miSW (220°)23.0 mphScattered Clouds
12:00 PM57.0 °F37.0 °F36 %29.79 in6.0 miSW (220°)23.0 mphPartly Cloudy
1:00 PM57.2 °F35.6 °F44 %29.80 in4.3 miSSW (200°)23.0 mphMostly Cloudy
1:13 PM57.2 °F35.6 °F44 %29.80 in2.5 miSSW (200°)23.0 mphWidespread Dust
2:00 PM59.0 °F35.6 °F42 %29.77 in3.1 miSSW (210°)23.0 mphWidespread Dust
3:00 PM59.0 °F36.0 °F29 %29.75 in3.0 miSW (220°)29.9 mphBlowing Sand
3:00 PM59.0 °F35.6 °F42 %29.77 in3.1 miSW (220°)29.9 mphWidespread Dust
4:00 PM55.4 °F37.4 °F51 %29.77 in3.1 miSSW (210°)32.2 mphWidespread Dust
5:00 PM55.4 °F37.4 °F51 %29.80 in4.3 miSW (220°)20.7 mphScattered Clouds
6:00 PM50.0 °F41.0 °F71 %29.86 in5.6 miSSW (200°)20.7 mphScattered Clouds
6:00 PM50.0 °F41.0 °F62 %29.88 in6.0 miSSW (200°)20.7 mphBlowing Sand
7:00 PM50.0 °F41.0 °F71 %29.86 in6.2 miWSW (250°)10.4 mphScattered Clouds
8:00 PM48.2 °F41.0 °F76 %29.89 in6.2 miSouth (190°)4.6 mphScattered Clouds
9:00 PM48.0 °F41.0 °F69 %29.91 in6.0 miSSW (200°)5.8 mphScattered Clouds
9:00 PM48.2 °F41.0 °F76 %29.89 in6.2 miSSW (200°)5.8 mphPartly Cloudy
10:00 PM48.2 °F41.0 °F76 %29.92 in6.2 miNW (320°)6.9 mphPartly Cloudy
11:00 PM46.4 °F39.2 °F76 %29.95 inSSW (200°)4.6 mphClear
Hourly data recorded from OETB, located miles away from Tabuk, Saudi Arabia







STORIES FROM OUR PARTNERS